STARLINK-1309, 45414

Orbit data source: Space-Track

STARLINK-1309, 45414 is a payload satellite owned by SpaceX/Seattle (US) in LEO that was launched on Wed, 18 Mar 2020 UTC via an FALCON 9 launch vehicle from the Air Force Eastern Test Range (AFETR). Payload-class satellites include a variety of spacecraft equipped with specific instruments for various scientific and technological missions. These include communications satellites like Starlink; space stations such as the ISS; scientific satellites like the Hubble; Earth observation satellites from companies like Planet Labs, Umbra, and HawkEye 360; GPS; miniature CubeSats for education and research; and military/defense satellites.

Not visible in the next 10 days
Identifier
45414, 2020-019BG
Orbit
LEO
Country
Flag of USUS
Related business
Manufacturer
SpaceX/Seattle
Mission
Partially operational Commercial Communications
Bus & Motor
STARLINK, Unknown motor
Mass
260 kg wet, ~248 kg dry
Launch date (UTC)
2020-03-18 (7 years ago)
Launch vehicle
FALCON 9
Launch site
Air Force Eastern Test Range (AFETR)
Object type
Payload
Rocket body
Debris
Shape & HBR
Box + 1 Pan, 10.1 m
Radar Cross Section
13.562 m², Large (>1 m²)

Expand to show TLE details & history
Last TLE update: 8 hours ago

TLE from 8 hours ago
0 STARLINK-1309
1 45414U 20019BG  26265.22651476  .00153590  19775-4  48881-3 0  9992
2 45414  53.0497 229.4131 0005260  69.6755 290.4835 15.90875568360948
Epoch: 2026-09-22T05:26Z
TLE epoch observation values (Epoch: 2026-09-22T05:26:10.875Z)
Latitude
-0.00004°
Longitude
146.77273°
Altitude
299.515 km
Speed
7.73 km/s
True Right ascension
15h 17m 39s
True Declination
0° 00' 00"
Sunlit
Object was in daylight at epoch
Visualization orbit readout
Latitude
Unknown
Longitude
Unknown
Altitude
Unknown
Speed
Unknown
Apparent Right ascension
Unknown
Apparent Declination
Unknown
Sunlit
N/A
Visualization observer readout
Local Sidereal Time
06:49:34
Azimuth
Unknown
Elevation
Unknown
Doppler factor
Unknown
Orbital elements
Apogee altitude
303.626 km
Perigee altitude
296.6 km
Semi-major axis
6,678.25 km
Eccentricity
0.00053
Inclination
53.0497°
RAAN
229.4131°
Arg. of periapsis
69.6755°
True anomaly
290.42702°
Mean anomaly
290.4835°
Eccentric anomaly
290.45526°
Mean motion
3.97694 °/min
Orbital period
90.52 mins
BSTAR
0.00048881
Loading maneuver chart data...
Computing Atmospheric mass density...

Documentation

Showing up to 5 results
|